This demonstration page uses our WeatherBlox Daily Observations layout. Learn more.

41.55636, -103.73856

Hourly Observations for October 12, 2016

Temp ( °F °C ) Dew Point ( °F °C ) Humidity (%) Winds ( mph kmh ) Pressure ( in mb ) Visibility ( mi km ) Precip ( " mm )
12:07 am 00:07 Cloudy with Mist and Fog 35 1.7 32 0 89 89 NNW 12 19 30.36 1028 6 9.65604 0 0
12:53 am 00:53 Cloudy 35 1.7 31 -0.6 85 85 N 7 11 30.3 1026 10 16.0934 0 0
1:31 am 01:31 Cloudy 35 1.7 31 -0.6 85 85 N 6 9 30.39 1029 10 16.0934 0 0
1:39 am 01:39 Cloudy 35 1.7 31 -0.6 85 85 N 5 7 30.39 1029 10 16.0934 0 0
1:53 am 01:53 Cloudy 35 1.7 31 -0.6 85 85 Calm 30.28 1025 10 16.0934 0 0
2:12 am 02:12 Cloudy 36 2 30 -1 81 81 undefined N/A 30.39 1029 10 16.0934 0 0
2:38 am 02:38 Cloudy 36 2 32 0 87 87 WNW 3 6 30.39 1029 10 16.0934 0 0
2:53 am 02:53 Cloudy 35 1.7 32 0 89 89 NW 6 9 30.28 1025 10 16.0934 0 0
3:24 am 03:24 Cloudy 36 2 28 -2 75 75 NNW 8 13 30.39 1029 10 16.0934 0 0
3:53 am 03:53 Cloudy 34 1.1 27 -2.8 76 76 NW 10 17 30.3 1026 10 16.0934 0 0
4:53 am 04:53 Mostly Cloudy 31 -0.6 25 -3.9 79 79 N 9 15 30.33 1027 10 16.0934 0 0
5:53 am 05:53 Clear 28 -2.2 23 -5 81 81 NNW 5 7 30.37 1028 10 16.0934 0 0
6:53 am 06:53 Clear 27 -2.8 21 -6.1 78 78 W 3 6 30.4 1030 10 16.0934 0 0
7:53 am 07:53 Sunny 31 -0.6 24 -4.4 76 76 Calm 30.4 1029 10 16.0934 0 0
8:53 am 08:53 Sunny 33 0.6 25 -3.9 72 72 VRB 3 6 30.4 1030 10 16.0934 0 0
9:53 am 09:53 Sunny 36 2.2 25 -3.9 64 64 SSE 6 9 30.39 1029 10 16.0934 0 0
10:53 am 10:53 Sunny 39 3.9 26 -3.3 60 60 VRB 3 6 30.37 1028 10 16.0934 0 0
11:53 am 11:53 Sunny 43 6.1 28 -2.2 56 56 S 7 11 30.33 1027 10 16.0934 0 0
12:53 pm 12:53 Sunny 48 8.9 30 -1.1 50 50 SE 9 15 30.27 1025 10 16.0934 0 0
1:53 pm 13:53 Sunny 52 11.1 31 -0.6 45 45 SE 12 19 30.22 1023 10 16.0934 0 0
2:53 pm 14:53 Sunny 54 12.2 31 -0.6 42 42 ESE 7 11 30.18 1022 10 16.0934 0 0
3:53 pm 15:53 Sunny 57 13.9 33 0.6 41 41 SE 10 17 30.15 1021 10 16.0934 0 0
4:53 pm 16:53 Sunny 59 15 33 0.6 38 38 SE 12 19 30.14 1021 10 16.0934 0 0
5:53 pm 17:53 Sunny 56 13.3 35 1.7 46 46 S 7 11 30.16 1021 10 16.0934 0 0
6:53 pm 18:53 Clear 50 10 35 1.7 57 57 S 9 15 30.18 1022 10 16.0934 0 0
7:53 pm 19:53 Clear 44 6.7 35 1.7 71 71 ESE 7 11 30.2 1023 10 16.0934 0 0
8:53 pm 20:53 Clear 42 5.6 35 1.7 76 76 ESE 7 11 30.2 1023 10 16.0934 0 0
9:53 pm 21:53 Clear 40 4.4 35 1.7 83 83 ESE 7 11 30.2 1023 10 16.0934 0 0
10:53 pm 22:53 Clear 39 3.9 35 1.7 86 86 ESE 9 15 30.18 1022 10 16.0934 0 0
11:53 pm 23:53 Clear 37 2.8 34 1.1 89 89 E 8 13 30.16 1021 10 16.0934 0 0

Powered by AerisWeather